Regional Weather Roundup
Issued by NWS Sterling, VA

Home | Current Version | Previous Version | Text Only | Print | Product List | Glossary Off
Versions: 1 2 3 4 5 6 7 8 9 10 11 12 13 14 15 16 17 18 19 20 21 22 23 24 25 26 27 28 29 30 31 32 33 34 35 36 37 38 39 40 41 42 43 44 45 46 47 48 49 50

000
ASUS41 KLWX 201610
RWRLWX

REGIONAL WEATHER ROUNDUP
NATIONAL WEATHER SERVICE BALTIMORE MD/WASHINGTON DC
1200 PM EDT MON OCT 20 2014

Note: "FAIR" indicates few or no clouds below 12,000 feet
with no significant weather and/or obstructions to visibility.
 TC=TEMPERATURE CELSIUS

 * =Non NWS site. Station does not report precipitation (e.g. rain,
    snow, etc.), thunder, or fog.

DCZ001-MDZ009-015-VAZ040>042-051-053>054-201700-
WASHINGTON METRO

CITY           SKY/WX    TMP DP  RH WIND       PRES   REMARKS
WASHINGTON NAT CLOUDY    63  41  44 S14       30.08F
DULLES           N/A    N/A N/A N/A MISG        N/A
ANDREWS AFB    MOSUNNY   60  42  51 S16       30.07F
FT BELVOIR     MOSUNNY   60  42  52 S12       30.08F
QUANTICO       MOSUNNY   61  43  51 SW8       30.08F
COLLEGE PARK*    N/A    N/A N/A N/A MISG        N/A
LEESBURG*      MOSUNNY   59  43  55 S15       30.05F
MANASSAS*      SUNNY     63  45  51 S12G18    30.06F
GAITHERSBURG*  PTSUNNY   59  39  47 S14       30.09F

$$

MDZ006>007-011-014-201700-
BALTIMORE METRO

CITY           SKY/WX    TMP DP  RH WIND       PRES   REMARKS
BWI AIRPORT    PTSUNNY   60  40  47 S12       30.07F
MD SCIENCE CTR   N/A     60  41  49 MISG      30.08F
MARTIN STATE   PTSUNNY   59  46  63 SE7       30.11F
ANNAPOLIS      PTSUNNY   60  43  53 S13G24    30.09F
FORT MEADE*    PTSUNNY   59  41  51 S12       30.10F

$$

MDZ012-015-019>023-201700-
MARYLAND EASTERN SHORE

CITY           SKY/WX    TMP DP  RH WIND       PRES   REMARKS
OCEAN CITY     MOSUNNY   60  41  49 SW7       30.14F
SALISBURY      PTSUNNY   63  39  41 S12       30.13F
BAY BRIDGE AP*   N/A     59  37  44 S10G18    30.10F
EASTON*        SUNNY     61  43  51 S12G20    30.14F

$$

MDZ017>025-201700-
SOUTHERN MARYLAND

CITY           SKY/WX    TMP DP  RH WIND       PRES   REMARKS
PATUXENT RIVER PTSUNNY   62  38  40 S12G21    30.10F
ST INIGOES     MOSUNNY   62  37  39 S15G23    30.10F
LEONARDTOWN*   NOT AVBL

$$

MDZ003>005-201700-
NORTH CENTRAL MARYLAND

CITY           SKY/WX    TMP DP  RH WIND       PRES   REMARKS
FREDERICK*     SUNNY     63  37  39 S10       30.08F
HAGERSTOWN APT CLOUDY    55  35  47 S9        30.03F
WESTMINSTER*   PTSUNNY   55  39  54 S10       30.05F

$$

MDZ501>502-201700-
WESTERN MARYLAND

CITY           SKY/WX    TMP DP  RH WIND       PRES   REMARKS
OAKLAND*       CLOUDY    45  36  70 SW7       30.01F
CUMBERLAND*    CLOUDY    48  37  66 CALM      30.08F

$$

VAZ025>031-201700-
SHENANDOAH VALLEY

CITY           SKY/WX    TMP DP  RH WIND       PRES   REMARKS
WINCHESTER*    PTSUNNY   57  32  38 S5        30.03F
FRONT ROYAL*   FAIR      59  41  51 S7        30.01F
LURAY*         FAIR      61  43  51 S6        30.02F
NEW MARKET*    FAIR      60  41  50 S10G20    30.02F
STAUNTON*      MOSUNNY   63  37  38 SW14      30.05F
WAYNESBORO*    FAIR      60  41  50 SW13G24   30.04F

$$

WVZ021-048>050-054>055-201700-
EASTERN WEST VIRGINIA PANHANDLE

CITY           SKY/WX    TMP DP  RH WIND       PRES   REMARKS
MARTINSBURG    PTSUNNY   56  37  49 VRB3      30.03F
PETERSBURG*    PTSUNNY  N/A N/A N/A CALM      30.04F

$$

VAZ036>039-050-201700-
CENTRAL FOOTHILLS

CITY           SKY/WX    TMP DP  RH WIND       PRES   REMARKS
CHARLOTTESVILL SUNNY     59  42  53 S8        30.05F
CULPEPER*      MOSUNNY   61  43  51 SW13      30.06F
ORANGE*        MOSUNNY   61  45  55 S14       30.07F
GORDONSVILLE*  FAIR      58  43  58 SW15G22   30.05F
WARRENTON*     FAIR      63  49  61 S16G22    30.05F

$$

VAZ055>057-201700-
NORTH AND CENTRAL PIEDMONT

CITY           SKY/WX    TMP DP  RH WIND       PRES   REMARKS
FREDERICKSBRG* MOSUNNY   64  44  48 SW13      30.07F
STAFFORD*      MOSUNNY   62  42  47 SW9G16    30.11F

$$

NCZ024-NYZ072-PAZ021-071-VAZ022-071-201700-
OTHER REGIONAL OBSERVATIONS

CITY           SKY/WX    TMP DP  RH WIND       PRES   REMARKS
NEW YORK CITY  PTSUNNY   52  32  46 VRB5      30.11F
PHILADELPHIA   PTSUNNY   57  39  51 S12       30.11F
PITTSBURGH     CLOUDY    52  40  63 S9        29.97F
ROANOKE        PTSUNNY   58  42  55 SE6       30.09F
RICHMOND       PTSUNNY   63  42  46 S16G22    30.11F
RALEIGH        MOSUNNY   65  43  44 SW14      30.14F

$$

ANZ530>537-201700-
MARINE OBSERVATIONS

STATION/POSITION TIME  TEMP    WIND        PRES
                       AIR SEA DIR/SP/G
                 (UTC) (F)     (DEG/KT/KT) (MB)
THOMAS PT LIGHT  1600   58 64  190/ 20/ 22 1019.8F
BALT KEY BRIDGE  1600   57     130/  7/  9 1018.5F
COVE POINT       1600   59     210/ 16/ 19 1019.4F
LEWISETTA        1600   60 62  230/ 10/ 13 1019.5F
SOLOMONS ISLAND  1600      66                N/A
PINEY POINT      1600          220/ 16/ 18   N/A

$$




USA.gov is the U.S. government's official web portal to all federal, state and local government web resources and services.